Lapse_Rate
7.3 6.5 6.5 6.5 6.5 6.5 6.5 6.5 6.5 6.5 6.5 6.5 6.5 6.5 6.5 7.0 7.2 7.1 7.4 7.6 7.8 8.1 8.7 8.9 9.1 9.2 9.2 9.3 9.1 9.1 4.3 4.9 3.4 5.4 8.8 9.0 9.0 8.2 9.6 9.8 9.6 9.0 8.4 8.3
6.5 6.5 6.5 6.5 6.5 6.5 6.5 6.5 6.5 6.5 6.5 6.5 6.5 6.5 6.5 6.5 6.8 7.2 7.3 7.5 7.8 8.2 8.4 8.6 8.8 8.9 9.0 9.0 9.1 8.3 4.9 4.6 4.2 5.0 7.4 8.6 8.3 9.5 9.6 9.2 8.1 8.3 8.7 8.5
6.5 6.5 6.6 6.5 6.5 6.5 6.5 6.5 6.5 6.5 6.5 6.5 6.5 6.5 6.5 6.5 7.0 7.3 7.6 7.8 8.0 8.0 8.1 8.4 8.6 8.7 9.0 8.9 9.0 8.1 6.4 7.6 8.5 7.6 7.8 8.7 9.2 8.4 8.9 9.1 9.5 8.8 9.1 8.9
6.5 6.7 6.5 6.5 6.5 6.5 6.5 6.5 6.5 6.5 6.5 6.5 6.5 6.5 6.5 6.5 6.5 6.5 7.2 7.5 7.8 8.0 8.2 8.4 8.6 8.6 8.9 9.1 9.2 9.2 9.1 8.6 8.9 9.0 7.6 8.1 8.6 8.5 9.2 9.2 9.1 9.2 8.8 8.7
6.5 6.5 6.5 6.5 6.5 6.5 6.5 6.5 6.5 6.5 6.5 6.5 6.5 6.5 6.5 6.5 6.5 6.5 6.8 7.3 7.8 8.1 8.3 8.4 8.7 8.7 9.0 9.2 9.2 9.3 9.1 8.8 7.6 7.6 8.4 8.9 8.0 9.1 9.5 9.5 9.2 8.5 8.8 9.5
6.5 7.2 6.6 6.5 6.5 6.5 6.5 6.5 6.5 6.5 6.5 6.5 6.5 6.5 6.5 6.5 6.5 6.5 6.8 7.3 7.7 8.1 8.4 8.5 8.7 8.9 8.8 9.2 9.2 9.3 9.0 8.2 7.3 8.3 7.6 7.1 7.4 7.9 8.7 8.8 9.3 9.4 9.6 9.3
6.5 6.5 6.6 6.9 6.5 6.5 6.5 6.5 6.5 6.5 6.5 6.5 6.5 6.5 6.5 6.5 6.5 6.5 6.6 7.2 7.7 8.1 8.3 8.4 8.5 8.6 8.7 8.9 9.1 9.2 8.9 7.5 8.0 8.9 8.7 9.1 8.9 8.7 8.8 8.6 9.3 8.4 9.4 9.4
6.5 6.5 6.5 6.5 6.5 6.5 6.5 6.5 6.5 6.5 6.5 6.5 6.5 6.5 6.5 6.5 6.9 7.2 7.4 7.6 7.9 8.1 8.4 8.5 8.6 8.7 8.8 8.9 9.0 9.1 8.8 7.7 8.3 9.2 9.1 8.8 9.3 9.4 9.4 9.0 9.2 9.4 9.1 9.0
6.5 6.5 6.5 6.5 6.5 6.5 6.5 6.5 6.5 6.5 6.5 6.5 6.5 6.5 6.5 6.5 6.5 6.8 7.1 7.4 7.5 7.9 8.2 8.4 8.7 8.8 8.8 8.9 9.0 9.1 8.7 7.6 9.0 9.1 8.9 8.2 7.7 7.1 8.3 8.7 9.2 9.5 8.3 8.2
6.5 6.5 6.5 6.5 6.7 6.6 6.5 6.5 6.5 6.5 6.5 6.5 6.5 6.5 6.5 6.5 6.5 6.5 6.6 7.0 7.5 8.0 8.2 8.4 8.7 8.8 9.0 9.1 9.1 9.2 8.8 9.0 9.1 9.3 9.2 9.3 8.9 9.2 9.2 8.9 9.2 8.0 6.3 5.4
6.5 6.5 6.5 6.5 6.5 6.5 6.5 6.5 6.5 6.5 6.5 6.5 6.5 6.5 6.5 6.5 6.5 6.5 6.7 7.3 7.6 7.9 8.2 8.4 8.7 8.9 9.1 9.3 9.3 9.1 9.1 9.1 9.2 9.3 9.3 9.2 9.4 9.4 9.0 8.8 9.3 8.6 5.5 5.1
6.5 6.5 6.5 6.5 6.5 6.5 6.5 6.5 6.5 6.5 6.5 6.5 6.5 6.5 6.5 6.5 6.5 6.8 7.0 7.5 7.9 8.1 8.3 8.5 8.6 8.8 9.0 9.0 9.0 9.1 9.1 9.2 9.3 9.3 9.3 9.3 9.4 8.9 9.1 9.2 9.4 8.7 5.8 5.4
6.5 6.5 6.5 6.5 6.5 6.5 6.5 6.5 6.5 6.5 6.5 6.5 6.5 6.5 6.5 6.6 6.6 7.0 7.1 7.6 7.8 8.0 8.2 8.4 8.5 8.6 8.7 8.8 8.7 9.0 9.3 9.3 9.4 9.4 9.4 9.3 9.3 8.2 8.0 9.2 9.2 8.9 8.6 6.1
5.8 6.5 6.5 6.5 6.5 6.5 6.5 6.5 6.5 6.5 6.5 6.5 6.5 6.5 6.5 6.5 6.5 6.8 7.2 7.6 7.8 7.9 8.0 8.3 8.3 8.4 8.6 8.0 7.5 8.9 9.2 9.4 9.4 9.4 9.4 9.2 9.1 8.5 7.0 9.2 9.1 8.9 8.4 7.2
6.5 6.5 6.5 6.5 6.5 6.5 6.5 6.5 6.5 6.5 6.5 6.5 6.5 6.5 6.5 6.5 6.5 6.9 7.4 7.6 7.7 7.8 8.0 8.2 8.3 8.3 8.5 8.1 7.6 9.1 9.0 9.2 9.4 9.3 9.3 9.2 9.3 8.1 7.5 9.3 8.3 6.8 7.3 7.6
6.5 6.5 6.5 6.5 6.5 6.5 6.5 6.5 6.5 6.5 6.5 6.5 6.5 6.5 6.5 7.0 7.3 7.1 7.3 7.5 7.5 7.7 8.0 8.2 8.4 8.5 8.5 8.5 8.7 9.0 9.0 9.1 9.3 9.2 9.2 9.3 9.3 9.2 7.3 9.0 7.2 6.9 6.4 7.5
6.5 6.5 6.5 6.5 6.5 6.5 6.5 6.5 6.5 6.5 6.5 6.5 6.5 6.5 6.5 6.5 6.7 7.0 7.2 7.5 7.6 7.9 8.0 8.1 8.2 8.4 8.5 8.7 8.8 8.9 9.0 9.2 9.1 9.1 9.2 9.1 9.1 7.7 7.2 9.2 6.9 5.6 5.5 6.0
6.5 6.5 6.5 6.5 6.5 6.5 6.5 6.5 6.5 6.5 6.5 6.5 6.5 6.5 6.6 6.8 7.4 7.7 7.8 7.7 7.8 8.0 8.2 8.3 8.6 8.5 8.8 9.0 9.0 9.1 9.2 9.1 9.0 8.7 8.8 7.9 8.6 7.1 7.2 8.7 5.4 4.7 5.3 6.0
6.6 6.5 6.5 6.5 6.5 6.5 6.5 6.5 6.5 6.5 6.5 6.5 6.5 6.5 6.9 7.3 7.5 7.4 8.1 8.2 8.1 8.2 8.4 8.5 8.6 8.8 8.7 8.9 8.9 8.9 8.9 9.0 8.7 7.8 8.2 7.7 8.4 7.4 7.0 7.7 5.1 5.0 5.3 5.9
6.5 6.5 6.5 6.5 6.5 6.5 6.5 6.5 7.1 6.7 6.5 6.7 6.8 6.6 6.8 7.1 6.5 6.5 8.1 8.3 8.1 8.0 8.2 7.5 7.9 8.0 6.6 6.6 8.4 8.5 8.4 7.6 6.2 5.8 6.2 7.1 6.1 5.2 6.5 7.3 6.5 5.2 5.3 5.9
6.5 6.5 6.5 6.5 6.5 6.5 6.5 6.7 7.3 6.5 6.5 7.1 7.3 7.2 7.2 6.6 7.4 7.9 8.4 8.4 8.6 8.1 7.7 8.1 7.8 7.4 6.4 7.8 8.1 8.1 7.1 5.4 3.8 4.6 4.6 2.8 5.1 5.1 5.7 5.5 6.5 5.9 5.6 6.2
6.5 6.5 6.5 6.5 6.5 6.5 6.9 6.7 6.5 6.7 7.4 7.5 7.5 7.6 7.5 7.8 8.0 8.0 8.1 8.1 8.4 8.4 8.4 8.6 8.2 5.8 5.6 6.2 7.7 7.2 4.6 3.0 3.4 3.3 1.2 0.2 0.0 1.8 2.6 3.4 3.4 5.2 6.1 6.4
6.5 6.5 6.5 6.5 6.5 6.8 7.4 7.2 7.7 7.8 7.5 7.7 7.7 7.9 8.0 8.0 8.1 8.1 8.0 8.1 5.7 5.4 6.3 7.3 7.0 5.7 5.0 4.8 5.0 2.7 1.5 2.0 2.1 1.7 2.0 0.5 0.7 1.0 0.8 1.0 1.2 1.9 2.2 2.4
6.5 6.9 6.5 6.5 6.5 6.7 7.3 7.8 8.0 8.1 7.9 8.1 8.2 8.2 8.2 8.0 8.2 8.1 8.1 6.5 6.3 6.6 7.0 8.1 8.2 6.4 3.8 3.2 3.3 2.9 3.0 3.1 2.8 2.9 2.1 1.2 1.1 1.3 0.6 1.1 2.0 1.7 2.2 2.0
6.7 6.6 6.5 6.5 6.6 7.1 7.4 7.8 8.0 8.0 8.2 8.2 8.4 8.4 8.2 8.3 8.2 8.0 7.6 6.8 6.4 7.3 8.2 8.4 7.9 6.0 3.9 3.8 3.8 4.0 4.2 3.9 3.4 2.9 2.6 2.0 1.2 0.0 -0.7 -0.9 -0.0 0.9 0.9 2.3
7.0 6.5 6.5 6.5 7.1 7.0 7.2 7.9 8.2 8.0 8.0 8.2 8.2 8.2 8.5 8.5 8.3 8.3 8.1 8.1 8.5 8.6 8.4 8.2 7.7 6.3 5.4 5.0 5.3 5.1 5.1 5.2 5.0 5.0 5.7 4.8 3.7 2.4 2.5 2.1 0.7 -1.1 -1.0 -1.6
Wind_Speed
9 10 12 12 3 11 9 8 8 5 3 9 11 4 10 6 7 9 11 12 13 13 13 12 10 7 7 9 11 12 11 4 1 10 9 6 6 8 6 5 8 7 9 13
6 12 1 4 6 7 8 9 11 6 1 9 12 9 10 5 5 6 10 13 13 14 13 11 8 7 7 7 7 7 10 11 7 9 4 1 2 3 3 4 5 9 11 12
15 10 6 6 9 10 11 11 7 9 2 12 12 15 15 10 6 5 7 11 14 13 14 12 9 8 7 8 8 6 7 9 9 10 3 3 3 6 7 3 4 2 5 6
10 6 5 9 12 10 14 7 8 8 10 10 1 10 11 10 9 12 8 9 10 12 12 12 9 9 9 9 8 8 6 6 5 5 3 4 4 4 5 4 6 5 5 6
6 6 10 11 10 5 4 1 6 9 11 13 10 6 4 8 4 8 4 8 9 12 13 12 11 9 10 10 8 7 7 6 4 3 5 4 3 3 3 3 2 3 3 5
15 3 6 11 9 8 5 8 11 11 12 12 13 6 7 6 10 6 9 2 8 13 14 12 12 11 9 10 8 9 8 5 4 3 2 2 3 3 4 4 5 7 7 4
14 13 9 7 9 10 9 11 9 10 11 9 8 4 8 8 5 4 5 5 8 12 13 13 13 12 10 12 12 9 10 8 8 7 5 3 3 2 4 6 6 7 7 8
11 14 18 12 15 9 12 14 11 13 9 3 7 3 3 6 3 6 3 3 10 13 13 14 14 13 12 13 13 11 11 9 9 7 6 4 1 2 4 6 6 7 6 8
8 6 4 1 11 14 14 12 15 17 17 12 12 7 9 7 3 7 6 6 9 11 13 13 13 13 14 14 14 12 11 10 10 9 7 5 3 5 5 6 7 7 8 8
2 6 9 10 9 10 17 6 10 9 14 15 13 3 5 8 2 16 9 8 9 11 11 11 11 11 12 13 11 12 13 12 11 10 8 5 4 4 5 4 6 9 8 9
14 6 8 7 11 13 8 12 12 16 10 10 8 4 15 5 4 7 10 10 10 11 11 11 12 12 13 14 13 12 12 12 11 9 7 5 3 6 4 3 7 8 8 9
17 8 11 12 7 5 8 12 15 10 13 10 11 7 19 8 8 3 11 11 11 12 11 11 13 14 13 13 13 12 11 10 9 8 7 5 4 9 4 5 6 8 8 8
11 8 10 13 10 12 11 13 12 10 11 14 13 2 7 8 8 4 11 12 11 10 12 13 13 13 12 11 10 11 10 9 9 8 7 5 4 8 5 4 5 6 8 9
5 11 11 13 2 14 13 14 14 13 11 12 15 17 15 6 11 9 10 13 13 12 13 13 13 13 12 9 4 6 8 8 8 8 7 6 5 7 6 3 4 6 8 9
8 12 13 17 17 9 11 10 14 13 14 17 9 4 22 16 5 6 9 13 13 13 14 14 14 13 14 13 12 10 8 9 9 8 7 7 6 7 5 3 5 6 7 6
11 8 14 16 16 10 13 12 14 10 14 14 19 12 6 10 11 7 9 12 13 13 13 15 15 15 14 12 12 10 9 9 9 8 8 7 7 7 5 5 5 6 5 6
8 10 10 14 17 15 14 13 14 14 14 15 11 6 15 10 10 7 5 12 13 13 13 14 15 14 13 14 13 11 11 10 9 8 8 7 6 8 5 6 7 6 5 5
7 10 11 12 15 14 9 3 7 8 10 9 9 3 5 4 8 8 2 7 11 12 11 13 13 12 12 12 11 11 11 9 8 6 5 8 8 9 7 6 7 6 5 5
11 10 9 12 12 15 11 6 9 9 11 11 10 4 4 3 7 10 7 3 4 6 9 9 7 10 6 6 4 6 5 6 5 2 2 2 5 10 9 8 8 7 6 5
16 11 10 11 13 18 13 4 8 1 9 14 3 5 6 6 8 7 5 9 11 10 10 10 10 10 7 4 4 6 5 5 3 1 3 3 4 9 9 8 7 8 6 6
16 13 15 13 14 12 14 6 3 10 1 9 8 10 9 4 6 8 6 7 7 6 7 8 7 7 5 4 5 5 6 5 4 3 3 4 2 6 5 6 5 8 6 7
14 15 13 14 17 19 8 3 11 6 9 7 7 7 10 10 10 9 8 7 6 7 8 7 8 8 6 5 3 6 7 5 4 4 6 6 8 6 5 7 5 4 6 7
7 11 10 11 10 6 6 9 7 5 5 6 5 7 9 10 10 9 9 7 11 11 9 7 7 7 6 5 5 6 5 5 6 7 6 8 9 8 8 8 7 6 6 6
14 6 6 5 8 5 4 6 7 8 7 5 4 3 4 9 9 9 8 8 6 6 5 5 5 6 5 6 7 7 6 6 8 7 7 8 9 9 7 5 5 5 5 4
7 3 12 11 3 3 7 8 6 6 5 4 3 3 5 6 8 9 9 7 6 6 5 4 5 5 6 7 6 6 6 8 8 8 8 9 8 9 8 7 5 5 5 3
6 1 4 1 9 5 6 5 4 3 6 3 5 5 4 6 9 9 9 8 9 7 5 5 6 7 7 7 6 6 6 7 8 8 7 7 8 7 6 7 7 13 7 9
Wind_Direction
207 243 222 233 310 352 319 304 301 292 111 263 275 286 282 134 197 162 170 178 190 194 184 176 186 198 209 210 197 215 58 25 99 290 204 177 221 202 215 242 274 279 267 255
193 233 297 47 284 268 258 261 252 237 68 260 274 287 295 153 227 203 183 174 200 187 166 181 187 184 210 201 216 174 163 193 177 240 283 84 218 306 325 337 248 254 257 263
254 74 74 228 226 250 242 261 270 277 225 253 254 259 242 182 179 203 232 192 186 204 173 187 193 191 194 176 184 159 182 194 202 209 200 175 196 199 233 209 268 138 265 284
246 227 204 229 245 236 267 170 278 273 268 280 164 294 174 167 194 178 204 207 202 193 174 172 190 179 178 169 154 170 155 146 185 192 219 247 283 343 21 261 38 312 257 268
206 218 212 237 235 217 291 352 255 273 272 268 269 240 248 177 212 133 120 180 193 165 173 169 177 170 186 168 165 155 143 156 148 231 210 209 317 152 84 350 317 244 214 297
274 127 254 232 222 236 295 254 241 252 255 257 239 271 287 54 42 26 139 133 173 165 163 172 156 154 158 170 160 157 159 147 144 168 105 69 107 42 19 12 346 350 353 20
215 217 217 245 221 208 212 248 245 222 221 242 102 247 309 359 89 35 359 119 162 157 163 166 158 164 169 164 164 156 144 156 162 163 152 144 128 93 104 356 17 315 360 350
208 204 200 188 242 202 219 257 268 292 285 52 165 280 77 52 341 139 151 170 150 162 169 167 169 166 169 169 178 173 160 159 172 150 146 154 244 64 43 55 356 13 5 351
212 221 135 235 212 237 248 244 259 276 273 267 282 256 184 136 207 142 117 130 151 159 166 169 159 161 169 170 173 185 167 164 164 158 156 153 121 57 46 29 350 14 24 351
315 252 181 166 233 236 256 285 243 233 265 281 265 272 210 147 161 121 136 156 153 162 153 154 153 155 162 172 172 168 163 169 162 159 163 149 118 72 47 38 31 47 27 11
240 227 162 169 213 239 190 238 254 284 286 282 277 156 1 357 93 102 132 150 162 163 161 158 148 155 155 160 160 169 159 165 160 156 142 146 121 100 50 42 40 50 38 21
222 222 250 221 224 253 290 236 221 246 231 260 276 284 193 149 138 144 137 146 159 159 144 155 153 151 151 156 158 158 162 162 154 138 145 143 144 90 68 37 49 59 49 40
217 229 239 244 223 206 242 243 250 270 282 276 278 50 39 295 135 104 141 143 156 151 153 150 150 150 144 141 158 162 166 153 153 149 156 159 129 98 72 48 53 63 63 59
349 245 242 252 356 290 194 238 236 229 247 245 244 261 188 133 115 120 146 152 165 164 160 156 159 152 150 135 105 188 173 151 149 162 163 145 116 107 96 71 75 57 64 59
238 242 254 261 276 261 263 224 213 236 244 257 261 159 326 86 67 83 157 159 170 174 174 164 165 158 159 158 196 174 166 154 158 163 164 152 132 110 120 104 74 73 63 60
231 241 258 270 262 246 259 242 261 251 240 252 263 307 133 102 85 76 154 169 181 184 187 170 168 166 162 179 177 175 157 162 169 172 167 156 154 131 133 115 108 76 72 64
227 237 246 249 241 235 233 245 251 237 251 252 265 12 10 70 78 80 163 176 188 188 190 179 171 175 180 181 182 171 162 169 173 180 182 174 172 130 158 128 107 102 84 86
266 249 263 260 257 240 242 265 312 319 307 259 253 228 112 84 96 78 348 188 186 188 190 184 174 181 181 182 174 178 169 180 181 203 189 166 186 146 160 149 129 126 120 105
221 259 246 254 253 272 256 192 233 246 264 269 248 276 131 128 155 76 21 32 157 167 169 183 166 167 152 139 143 157 181 180 193 127 246 81 183 168 171 168 152 146 141 129
211 216 265 256 249 253 269 14 61 279 267 275 75 271 292 176 255 77 59 43 67 53 79 90 91 82 75 83 180 159 140 104 114 76 355 321 356 134 166 169 146 147 152 143
212 213 227 235 256 255 268 79 182 222 10 36 15 27 25 54 52 92 92 82 74 85 110 120 130 120 133 185 167 139 137 99 58 23 37 20 89 155 160 145 148 147 162 138
206 215 227 236 247 246 177 223 257 50 82 48 59 52 89 97 96 99 102 109 124 128 136 147 113 81 55 32 127 108 92 74 64 62 78 55 56 56 62 78 50 69 122 132
254 215 237 237 235 79 32 75 76 42 66 54 43 72 108 117 115 122 116 107 70 71 66 78 110 124 105 75 88 111 93 88 78 74 70 80 70 63 60 71 62 59 67 85
211 221 254 295 171 123 99 109 75 46 49 61 48 64 89 104 118 122 125 105 108 120 111 129 123 102 92 78 83 93 98 94 97 94 85 78 80 74 62 69 87 90 89 88
87 347 237 251 144 127 105 51 42 85 77 89 116 103 99 108 117 127 130 142 145 155 160 143 125 126 119 106 97 96 106 102 98 96 95 88 85 82 76 58 42 71 47 105
356 4 293 313 39 326 73 47 28 48 77 80 105 117 103 109 136 142 152 162 164 129 136 135 133 132 120 113 112 108 103 119 123 126 118 110 112 108 107 101 83 53 67 64